Location: Kitchener
(43.4500°N, 80.5000°W)
Time: 10:18:52
(UTC-05:00)

N. Korean satellite - Visible Passes

Search period start: 21 February 2018 00:00
Search period end: 03 March 2018 00:00
Orbit: 459 x 514 km, 97.2° (Epoch: 21 February)

Date Brightness Start Highest point End Pass type
(mag) Time Alt. Az. Time Alt. Az. Time Alt. Az.
21 Feb 8.5 06:37:52 10° NNE 06:41:18 36° E 06:44:44 10° SSE visible
21 Feb 8.8 18:48:45 10° SSW 18:51:47 29° W 18:54:54 10° NW visible
22 Feb 9.9 06:14:43 10° NE 06:17:26 19° E 06:20:11 10° SE visible
23 Feb 10.7 05:52:55 10° E 05:53:30 10° E 05:54:06 10° E visible
24 Feb 9.9 19:11:57 10° SW 19:14:10 16° W 19:16:24 10° NW visible
25 Feb 8.6 06:36:22 10° NNE 06:39:48 35° E 06:43:16 10° SSE visible
25 Feb 8.8 18:47:09 10° SSW 18:50:15 30° W 18:53:25 10° NNW visible
26 Feb 9.9 06:13:13 10° NE 06:15:56 19° E 06:18:39 10° SE visible
27 Feb 10.8 05:51:41 10° E 05:51:59 10° E 05:52:17 10° E visible
28 Feb 9.9 19:10:17 10° SW 19:12:35 17° W 19:14:57 10° NW visible
01 Mar 8.7 18:45:31 10° SSW 18:48:40 32° W 18:51:54 10° NNW visible
02 Mar 10.0 06:11:41 10° NE 06:14:23 19° E 06:17:04 10° SE visible
